Location: *
(45.1333°S, 169.6333°W)
Time: 19:46:06
(UTC+00:00)

Cosmos 1486 Rocket - Pass Details

Date: 26 May 2022
Orbit: 759 x 782 km, 74.1° (Epoch: 01 July)

Event Time Altitude Azimuth Distance (km) Brightness Sun altitude
Rises 05:06:59 0° 198° (SSW) 3,299 7.3 -13.3°
Reaches altitude 10° 05:09:28 10° 192° (SSW) 2,367 6.5 -13.8°
Maximum altitude 05:14:43 51° 116° (ESE) 991 4.2 -14.7°
Drops below altitude 10° 05:19:56 10° 40° (NE) 2,347 6.3 -15.5°
Sets 05:22:22 0° 34° (NE) 3,268 7.1 -16.0°
